Location: Newark
(46.1292°N, 1.0086°W)
Time: 00:30:33
(UTC+00:00)

Vanguard 1 Rocket - Visible Passes

Search period start: 18 November 2019 00:00
Search period end: 28 November 2019 00:00
Orbit: 651 x 4225 km, 34.3° (Epoch: 16 November)

Date Brightness Start Highest point End Pass type
(mag) Time Alt. Az. Time Alt. Az. Time Alt. Az.
18 Nov 8.8 05:25:05 13° SW 05:28:15 24° S 05:33:13 10° ESE visible
19 Nov 8.8 04:18:00 19° SSE 04:18:00 19° SSE 04:21:19 10° ESE visible
20 Nov 8.7 05:28:12 13° SW 05:31:05 22° S 05:35:43 10° SE visible
21 Nov 8.7 04:21:06 20° SSE 04:21:06 20° SSE 04:24:08 10° SE visible
22 Nov 8.7 05:31:18 13° SW 05:33:55 20° S 05:38:03 10° SE visible
23 Nov 8.8 04:24:12 19° SSE 04:24:12 19° SSE 04:26:51 10° SE visible
24 Nov 8.8 05:34:22 12° SW 05:36:46 17° S 05:40:12 10° SSE visible
25 Nov 8.9 04:27:15 17° SSE 04:27:15 17° SSE 04:29:27 10° SE visible
26 Nov 9.0 05:37:29 10° SW 05:39:36 13° SSW 05:41:56 10° SSE visible
27 Nov 9.0 04:30:21 14° S 04:30:21 14° S 04:31:52 10° SSE visible
